Temp
65 65 64 64 63 63 63 63 63 63 63 63 63 63 63 63 63 63 63 63 62 62 62 63 63 64 81 92 96 100 85 86 98 101 103 103 100 99 93 94 94 90 90 90 91 90 91
65 64 64 64 64 64 64 64 64 63 63 63 62 62 62 62 62 63 62 62 61 62 62 63 64 64 88 87 99 100 98 99 104 102 104 104 101 102 97 93 92 92 93 90 91 91 90
65 66 66 66 65 64 64 65 64 63 62 62 62 62 62 62 62 62 62 61 61 62 62 63 64 78 89 94 99 101 100 101 103 103 102 105 105 101 99 93 94 93 89 91 91 90 87
63 63 64 64 65 65 64 64 64 62 62 62 61 61 62 61 61 61 61 60 61 65 64 64 66 85 90 98 102 98 102 102 103 104 103 105 106 101 99 98 94 90 91 82 88 89 87
63 63 62 62 62 62 62 62 62 61 61 61 61 61 61 61 61 60 59 60 64 67 66 67 82 88 89 89 96 102 103 100 103 103 104 103 104 100 97 93 90 90 82 82 85 90 88
62 62 62 62 62 61 61 61 61 61 61 61 60 60 60 60 59 59 58 60 65 67 75 82 85 84 93 91 97 98 102 101 100 100 98 99 99 94 96 91 81 81 84 82 83 88 87
62 62 62 62 61 61 61 61 61 61 60 60 60 60 59 59 58 58 68 84 86 84 89 86 89 86 90 97 98 97 101 99 100 98 91 96 90 86 92 93 90 88 85 82 86 89 86
62 62 62 61 61 61 61 60 60 60 60 60 60 59 59 58 57 57 73 87 80 80 77 89 87 87 91 93 89 94 101 93 92 88 94 88 85 95 97 95 90 89 86 85 87 87 86
62 62 62 61 61 61 61 60 60 60 59 59 59 59 58 57 57 73 83 82 85 84 78 85 87 86 89 91 89 93 97 96 90 88 89 87 91 96 91 90 88 89 87 85 83 87 89
62 62 61 62 61 61 60 60 59 59 59 59 59 58 57 55 68 80 85 84 87 84 78 81 85 87 89 92 86 97 100 96 89 86 89 89 93 88 89 88 91 85 92 87 84 83 80
60 60 60 60 59 59 59 59 59 59 58 58 58 58 57 54 73 81 83 87 87 83 67 83 85 95 92 89 92 89 101 95 88 86 88 85 85 86 86 89 93 87 91 88 86 86 84
60 60 60 60 59 59 59 58 58 58 58 58 58 57 56 69 76 82 85 87 84 74 65 79 86 84 84 89 89 91 91 97 95 88 89 90 91 92 91 94 92 94 88 88 89 87 76
60 60 60 59 59 58 58 58 58 58 57 57 56 55 56 69 83 83 85 85 74 70 82 77 80 85 86 84 86 88 86 85 83 77 79 85 85 90 91 87 91 88 86 75 73 74 74
60 59 59 59 58 58 58 58 58 57 57 56 55 53 61 72 81 81 83 79 65 75 77 84 82 82 80 86 86 86 84 82 89 88 85 78 74 86 91 89 86 86 88 78 65 71 77
60 59 59 59 58 58 58 58 57 57 57 55 54 82 80 83 81 79 80 72 76 77 80 79 82 78 79 84 83 84 84 84 88 89 80 79 79 91 91 94 93 86 81 93 84 84 78
59 59 59 59 58 58 58 58 57 57 56 55 68 78 84 81 81 80 78 66 76 81 81 81 75 79 77 81 79 82 82 88 87 91 94 86 77 88 90 91 90 89 94 80 83 68 66
59 59 59 59 58 58 58 58 57 56 55 55 72 76 79 83 83 80 74 77 77 84 82 79 78 77 80 79 83 82 83 87 91 90 93 90 85 82 87 84 85 85 84 86 89 84 73
59 59 59 59 58 58 58 58 57 55 54 61 74 75 82 85 75 81 76 77 62 81 84 81 81 80 80 81 81 82 82 86 93 94 84 90 88 80 82 92 93 93 89 90 79 76 82
59 59 59 59 58 58 58 57 56 55 54 59 69 75 84 82 72 74 77 77 79 79 80 80 79 82 84 80 76 84 86 91 93 91 87 91 83 76 79 85 88 86 90 92 92 91 79
59 59 59 59 58 58 58 57 56 55 54 62 66 71 77 79 79 76 74 75 74 80 79 81 80 83 82 81 85 81 83 87 90 93 77 87 88 82 77 80 88 82 86 89 90 82 82
59 59 59 59 59 59 58 58 56 55 54 62 70 70 67 72 73 75 75 73 73 73 80 81 79 79 79 76 80 80 84 86 87 81 87 92 82 85 86 86 86 87 87 87 85 88 82
58 58 59 59 59 59 59 58 57 56 55 67 65 66 70 71 69 70 64 73 72 75 75 77 75 79 79 76 79 77 81 83 84 86 88 94 82 86 82 86 86 83 87 88 88 89 88
58 58 58 59 59 59 59 58 58 56 56 64 66 70 66 61 70 70 74 73 73 73 78 79 77 76 77 80 81 84 87 87 87 86 87 88 87 81 76 84 83 78 86 86 88 90 89
58 59 58 59 59 59 59 59 59 57 57 62 65 64 66 68 69 71 69 70 70 72 71 77 79 76 82 86 86 90 89 89 89 89 92 86 86 86 80 80 67 86 90 89 87 89 92
58 58 58 58 59 59 59 59 59 58 57 64 64 64 65 63 69 67 67 69 71 73 72 75 80 82 85 82 80 80 81 81 83 86 89 93 88 80 76 77 81 84 86 86 83 86 90
58 58 58 58 58 59 59 59 59 59 57 64 67 68 65 59 67 67 66 69 68 72 74 76 83 85 82 80 79 70 74 79 77 79 89 91 92 85 80 73 68 85 89 92 90 80 88
58 58 58 58 58 59 59 60 60 59 57 63 65 68 64 59 68 67 66 67 71 70 70 75 73 77 82 79 75 76 77 83 76 76 76 80 82 79 79 77 83 88 91 92 75 76 92
57 57 57 57 58 58 59 59 59 60 58 62 66 68 62 59 65 68 69 66 69 68 67 72 73 75 77 71 76 81 76 82 80 82 81 79 79 79 81 76 72 91 89 83 85 88 89
57 57 57 57 57 58 59 59 59 59 59 59 60 68 69 58 62 70 69 71 70 70 67 70 69 68 74 72 76 74 75 81 81 75 79 78 88 83 84 84 82 93 90 91 92 91 89
MSLP
1023.18 1023.01 1022.85 1022.65 1022.41 1022.16 1021.81 1021.39 1020.90 1020.42 1019.92 1019.37 1018.75 1018.15 1017.53 1016.86 1016.17 1015.51 1014.85 1014.09 1013.39 1012.81 1012.58 1012.31 1012.02 1011.45 1010.29 1008.25 1006.18 1006.49 1006.69 1006.72 1006.63 1006.27 1005.06 1004.23 1003.50 1003.12 1003.17 1003.90 1004.26 1004.71 1005.52 1006.13 1006.60 1006.95 1007.00
1023.24 1023.04 1022.78 1022.57 1022.32 1022.05 1021.75 1021.36 1020.91 1020.41 1019.93 1019.43 1018.84 1018.17 1017.48 1016.75 1015.98 1015.22 1014.46 1013.77 1013.07 1012.49 1012.13 1012.03 1011.83 1011.46 1009.70 1007.27 1006.47 1006.61 1006.41 1006.30 1005.75 1005.68 1004.77 1004.32 1003.81 1003.71 1003.59 1004.15 1004.22 1004.98 1005.29 1005.98 1006.37 1006.67 1007.14
1023.09 1022.82 1022.63 1022.39 1022.15 1021.85 1021.54 1021.21 1020.81 1020.38 1019.91 1019.37 1018.77 1018.08 1017.40 1016.71 1015.94 1015.13 1014.16 1013.41 1012.69 1011.99 1011.74 1011.73 1011.60 1010.91 1008.65 1006.43 1006.60 1006.61 1006.52 1005.88 1005.97 1005.59 1004.72 1004.53 1004.25 1003.65 1003.79 1004.05 1005.00 1004.95 1004.83 1005.48 1005.93 1006.46 1006.91
1023.24 1022.91 1022.63 1022.27 1021.91 1021.58 1021.27 1020.96 1020.59 1020.24 1019.77 1019.24 1018.67 1018.02 1017.23 1016.48 1015.71 1014.94 1014.09 1013.18 1012.43 1011.71 1011.48 1011.45 1011.33 1010.10 1007.00 1006.77 1006.69 1006.63 1006.29 1005.89 1005.95 1005.77 1005.38 1004.91 1004.45 1003.99 1003.74 1004.40 1004.46 1004.11 1004.24 1004.50 1005.50 1006.05 1006.77
1023.36 1023.06 1022.73 1022.41 1022.06 1021.71 1021.41 1021.14 1020.73 1020.26 1019.68 1019.09 1018.51 1017.88 1017.09 1016.30 1015.45 1014.58 1013.81 1012.97 1012.27 1011.75 1011.50 1011.31 1010.55 1008.97 1006.20 1006.99 1006.29 1005.78 1005.95 1005.30 1005.39 1005.49 1005.38 1005.23 1004.55 1003.69 1004.00 1003.23 1002.86 1003.39 1003.43 1004.08 1004.56 1005.58 1005.87
1023.50 1023.22 1022.88 1022.51 1022.15 1021.79 1021.43 1021.06 1020.64 1020.16 1019.70 1019.13 1018.40 1017.72 1016.97 1016.12 1015.19 1014.30 1013.35 1012.79 1012.21 1011.87 1011.27 1010.60 1009.83 1008.57 1006.30 1005.69 1005.82 1005.83 1005.90 1005.78 1005.01 1004.92 1004.97 1004.74 1004.03 1003.41 1002.93 1002.69 1001.82 1002.81 1003.03 1004.06 1004.19 1004.86 1005.39
1023.60 1023.27 1022.94 1022.59 1022.25 1021.92 1021.51 1021.07 1020.60 1020.10 1019.56 1018.95 1018.31 1017.62 1016.85 1015.97 1014.96 1013.97 1012.85 1011.67 1011.49 1010.67 1009.24 1008.39 1007.56 1006.93 1006.11 1005.87 1005.98 1005.57 1005.53 1005.40 1004.84 1004.43 1003.74 1003.98 1003.41 1002.57 1002.19 1002.34 1002.85 1003.20 1003.26 1003.55 1004.29 1004.92 1004.86
1023.63 1023.35 1023.04 1022.67 1022.29 1021.93 1021.54 1021.10 1020.65 1020.11 1019.49 1018.90 1018.27 1017.55 1016.67 1015.73 1014.79 1013.61 1012.93 1010.85 1011.91 1012.03 1009.42 1007.42 1007.38 1006.92 1006.65 1006.51 1005.25 1005.15 1005.48 1004.94 1004.45 1003.65 1003.48 1003.94 1002.79 1002.28 1002.29 1002.51 1002.93 1002.99 1002.84 1002.90 1004.06 1004.62 1004.62
1023.61 1023.35 1023.05 1022.73 1022.31 1021.85 1021.44 1021.04 1020.54 1020.01 1019.52 1018.94 1018.28 1017.60 1016.80 1015.63 1014.44 1013.17 1012.27 1011.89 1012.09 1011.77 1009.59 1006.76 1006.45 1006.06 1005.85 1006.33 1004.87 1004.25 1004.91 1004.32 1004.07 1003.55 1003.47 1002.77 1002.36 1002.49 1002.75 1002.74 1002.76 1002.49 1002.45 1002.75 1003.57 1003.91 1003.85
1023.58 1023.25 1022.96 1022.62 1022.19 1021.77 1021.35 1020.93 1020.48 1019.98 1019.41 1018.84 1018.25 1017.66 1016.97 1015.74 1014.49 1013.31 1011.80 1012.12 1011.93 1011.72 1008.35 1005.99 1005.36 1005.40 1005.72 1005.25 1004.68 1004.41 1004.41 1004.18 1004.05 1003.46 1003.39 1003.11 1002.97 1003.30 1002.95 1002.48 1002.61 1001.95 1002.33 1003.23 1003.57 1003.48 1002.52
1023.68 1023.38 1023.02 1022.63 1022.25 1021.83 1021.40 1020.91 1020.38 1019.88 1019.30 1018.62 1018.06 1017.61 1017.07 1016.78 1014.91 1012.79 1012.17 1012.03 1011.80 1011.21 1006.55 1005.34 1004.93 1005.32 1005.03 1004.45 1003.69 1004.37 1004.32 1004.24 1003.46 1003.63 1003.91 1003.00 1003.43 1003.35 1002.51 1002.15 1002.38 1002.32 1002.89 1003.03 1003.42 1002.96 1002.53
1023.74 1023.41 1023.05 1022.67 1022.27 1021.81 1021.34 1020.81 1020.23 1019.60 1019.02 1018.36 1017.70 1017.41 1016.97 1015.34 1014.43 1012.87 1012.47 1011.95 1011.42 1008.92 1005.23 1004.43 1004.53 1004.41 1004.38 1003.89 1003.52 1004.10 1004.39 1004.36 1003.78 1003.61 1003.94 1002.97 1003.89 1003.27 1002.57 1002.52 1002.71 1002.91 1003.12 1003.05 1002.96 1002.56 1001.59
1023.78 1023.43 1023.05 1022.67 1022.25 1021.79 1021.29 1020.71 1020.07 1019.39 1018.68 1017.88 1017.15 1016.85 1016.91 1015.52 1012.60 1012.81 1012.23 1010.69 1008.59 1005.85 1004.98 1004.23 1003.71 1003.75 1003.26 1003.09 1003.12 1003.33 1003.55 1003.51 1003.08 1003.15 1002.86 1003.25 1003.43 1003.37 1003.39 1002.85 1003.13 1003.41 1002.69 1001.97 1001.77 1001.39 1000.71
1023.72 1023.36 1023.00 1022.61 1022.17 1021.68 1021.17 1020.59 1019.94 1019.19 1018.33 1017.41 1016.53 1015.87 1015.08 1014.16 1013.23 1013.00 1011.61 1009.39 1006.79 1005.22 1004.15 1004.14 1003.78 1003.57 1002.98 1002.64 1002.54 1002.75 1002.82 1002.61 1002.70 1002.31 1001.43 1001.93 1002.37 1002.71 1002.87 1002.35 1002.03 1002.37 1001.87 1000.83 1000.60 1000.16 1000.06
1023.63 1023.27 1022.91 1022.51 1022.07 1021.56 1021.01 1020.41 1019.75 1018.97 1018.07 1017.09 1015.82 1013.64 1013.11 1012.66 1013.01 1012.93 1010.70 1007.63 1005.19 1004.87 1004.64 1003.97 1003.30 1002.90 1002.68 1002.52 1002.56 1002.46 1002.24 1001.99 1002.09 1002.48 1001.82 1001.43 1001.25 1001.72 1002.21 1002.15 1002.02 1001.58 1001.46 1000.92 1000.40 1000.55 1000.38
1023.49 1023.14 1022.78 1022.39 1021.96 1021.47 1020.92 1020.30 1019.65 1018.80 1017.91 1016.99 1015.38 1013.13 1011.97 1012.46 1012.52 1011.68 1009.29 1006.95 1005.92 1005.62 1005.11 1004.36 1002.99 1002.79 1001.80 1002.04 1002.42 1002.03 1001.71 1001.49 1001.53 1001.96 1001.99 1001.45 1001.26 1001.54 1002.08 1002.58 1002.41 1001.63 1001.28 1001.19 1000.87 1000.17 1000.06
1023.41 1023.07 1022.69 1022.30 1021.90 1021.44 1020.91 1020.32 1019.63 1018.81 1017.68 1016.51 1014.88 1012.16 1012.13 1012.34 1012.14 1010.17 1007.63 1006.43 1006.33 1005.84 1005.63 1004.65 1003.71 1002.98 1002.30 1001.86 1001.70 1001.26 1000.91 1001.12 1001.13 1001.44 1002.02 1001.70 1001.36 1001.34 1001.88 1001.49 1000.78 1001.57 1000.87 1000.72 999.89 999.90 999.56
1023.31 1022.97 1022.60 1022.24 1021.87 1021.42 1020.90 1020.38 1019.77 1019.03 1017.69 1015.81 1014.22 1011.33 1011.98 1011.92 1010.41 1008.69 1007.26 1007.02 1007.84 1005.97 1005.64 1005.08 1004.61 1003.64 1002.77 1002.27 1001.49 1001.03 1000.71 1000.54 1000.85 1000.90 1001.58 1001.74 1000.76 1000.24 1000.65 1000.50 1000.85 1000.19 1000.06 999.89 999.77 999.76 1000.02
1023.10 1022.81 1022.44 1022.10 1021.80 1021.39 1020.89 1020.42 1019.89 1019.38 1018.93 1017.79 1014.54 1012.27 1011.63 1011.44 1008.85 1007.95 1007.55 1007.11 1006.91 1006.04 1005.49 1005.06 1004.35 1003.89 1003.32 1002.50 1001.84 1001.00 1000.59 1000.74 1001.04 1001.15 1001.13 1001.38 1001.15 1000.01 999.97 1000.86 1001.09 1000.39 999.97 999.37 999.18 999.03 998.97
1022.90 1022.60 1022.26 1021.97 1021.65 1021.30 1020.89 1020.45 1020.01 1019.55 1019.16 1018.19 1015.50 1011.90 1010.89 1010.64 1009.73 1008.21 1007.39 1006.75 1006.44 1006.44 1005.99 1005.58 1004.78 1004.19 1003.47 1002.51 1002.09 1001.41 1000.99 1001.17 1001.37 1001.02 1001.25 1000.97 1000.00 999.69 998.96 998.98 998.88 999.70 999.42 999.60 999.01 998.67 998.47
1022.62 1022.36 1022.04 1021.73 1021.47 1021.14 1020.82 1020.44 1020.03 1019.62 1019.05 1018.32 1015.39 1012.94 1012.59 1009.99 1009.42 1008.72 1008.35 1007.62 1006.66 1006.07 1006.03 1005.74 1004.76 1004.52 1003.85 1002.88 1001.92 1001.61 1001.47 1001.19 1001.42 1001.38 1001.27 1000.57 999.48 999.60 999.15 999.58 999.31 998.71 998.69 999.02 998.85 998.51 998.14
1022.27 1022.07 1021.79 1021.46 1021.14 1020.91 1020.73 1020.45 1020.07 1019.67 1018.91 1017.41 1015.69 1014.49 1013.46 1011.55 1010.62 1009.66 1008.72 1007.62 1007.15 1006.46 1006.47 1005.41 1005.31 1004.79 1004.69 1003.87 1003.13 1002.49 1002.09 1001.55 1000.70 1001.28 1000.73 999.95 999.08 999.39 999.44 999.68 999.48 999.04 998.87 998.81 998.96 998.63 998.51
1021.82 1021.71 1021.49 1021.21 1020.89 1020.65 1020.50 1020.31 1020.10 1019.78 1019.16 1017.57 1016.91 1016.00 1014.65 1012.11 1010.49 1009.67 1008.29 1008.02 1007.59 1007.80 1006.77 1006.58 1006.31 1005.95 1004.83 1004.42 1004.57 1003.73 1003.01 1002.39 1001.87 1000.98 1000.27 999.55 998.87 999.26 998.84 999.42 999.37 998.88 998.45 998.71 998.69 998.83 998.80
1021.33 1021.18 1021.06 1020.87 1020.63 1020.41 1020.27 1020.14 1019.99 1019.91 1019.74 1018.96 1017.87 1016.94 1014.64 1011.79 1011.13 1009.85 1009.71 1009.47 1008.78 1008.38 1007.82 1007.07 1006.82 1006.13 1005.29 1005.47 1004.41 1002.57 1001.94 1001.44 1000.99 1000.63 1000.31 999.46 998.96 998.74 998.25 999.39 998.97 998.18 999.11 999.16 999.08 998.91 999.16
1020.81 1020.69 1020.56 1020.45 1020.29 1020.11 1019.93 1019.87 1019.82 1019.80 1019.81 1018.82 1018.39 1017.27 1015.45 1013.13 1011.91 1011.16 1010.79 1010.05 1009.52 1009.09 1008.43 1007.63 1006.82 1006.50 1006.33 1005.25 1003.27 1001.29 1000.68 1000.51 1000.15 1000.05 999.81 999.28 998.79 998.60 998.56 998.55 998.41 998.50 998.98 999.04 998.99 998.43 999.41
1020.17 1020.08 1020.10 1020.00 1019.94 1019.65 1019.56 1019.47 1019.49 1019.57 1019.64 1019.13 1018.17 1018.08 1016.72 1015.06 1012.15 1012.15 1011.55 1010.76 1009.92 1008.81 1008.15 1007.57 1006.96 1006.94 1006.31 1004.63 1002.83 1001.05 999.14 998.84 999.27 999.64 999.61 999.15 998.74 998.40 998.41 997.94 997.99 997.95 998.85 999.37 999.41 998.70 999.69
1019.63 1019.47 1019.47 1019.38 1019.44 1019.33 1019.14 1019.09 1019.01 1019.11 1019.34 1019.07 1018.25 1018.01 1017.20 1015.54 1013.48 1013.20 1012.07 1011.28 1010.81 1010.18 1009.05 1008.14 1007.94 1006.74 1006.12 1003.98 1002.55 1000.64 999.06 998.87 998.59 998.63 999.05 998.85 998.67 998.25 998.21 998.12 997.79 998.69 999.28 999.66 999.49 999.40 999.43
1018.98 1018.76 1018.75 1018.73 1018.75 1019.01 1018.78 1018.63 1018.63 1018.56 1018.95 1018.88 1017.76 1017.82 1017.48 1016.06 1014.35 1013.83 1013.40 1012.75 1011.92 1011.36 1009.95 1009.32 1008.59 1007.41 1006.22 1004.97 1003.21 1000.94 1000.43 999.22 998.91 998.52 998.62 998.30 997.99 997.96 998.05 998.27 998.49 999.24 999.75 999.52 1000.08 1000.32 1000.57
1018.27 1018.14 1018.09 1017.99 1018.15 1018.27 1018.25 1018.10 1018.17 1018.15 1018.44 1018.92 1017.98 1017.57 1017.59 1017.30 1014.99 1014.48 1014.20 1013.71 1013.37 1012.94 1012.53 1011.06 1009.76 1008.98 1007.91 1006.43 1005.06 1003.97 1001.77 1000.39 998.95 998.75 999.81 998.89 997.76 997.72 998.38 998.54 999.77 999.51 999.79 1000.25 1000.21 1000.41 1001.02
Wind_Speed
8 9 9 10 10 11 12 12 14 15 16 17 18 19 19 20 21 22 21 21 21 19 17 15 13 14 9 8 2 6 6 4 10 8 11 6 4 4 8 6 7 11 8 5 7 6 7
8 8 9 9 9 11 11 12 15 16 15 16 17 18 19 21 22 23 23 22 21 19 15 11 10 12 7 9 4 4 4 6 8 7 6 6 6 5 7 6 6 3 7 9 6 7 5
9 7 8 9 9 10 12 15 16 14 15 16 17 18 20 21 22 23 24 23 21 15 10 8 6 6 7 5 3 2 1 4 4 6 6 2 5 5 1 8 4 6 8 9 8 7 5
12 12 12 12 10 10 11 12 15 15 16 17 18 19 21 22 22 23 23 23 17 10 4 4 5 5 5 2 4 7 4 6 4 5 5 4 3 2 5 7 6 4 4 6 5 7 5
12 12 13 13 13 14 14 14 14 14 16 17 18 19 21 22 24 24 23 19 7 3 3 4 7 5 2 3 6 3 6 4 7 6 4 3 5 3 6 9 9 4 8 3 6 5 3
12 12 12 13 13 14 14 14 15 16 16 17 19 20 22 23 25 24 24 8 1 5 5 5 4 7 5 4 1 1 4 6 7 9 9 10 9 10 11 9 2 3 4 3 6 4 4
12 13 13 13 13 12 13 14 15 16 17 18 19 20 21 24 25 26 15 6 6 8 8 10 6 5 1 3 3 7 6 10 8 13 14 13 12 15 16 11 4 1 2 2 6 4 5
10 11 12 12 12 12 12 13 14 16 17 18 19 21 22 25 25 25 9 4 6 6 9 5 9 11 9 4 5 9 8 13 11 14 14 9 17 16 15 12 9 8 6 3 6 3 5
12 12 12 12 12 13 13 14 15 16 17 17 19 20 21 24 28 10 6 6 5 6 8 3 3 4 4 10 7 11 15 17 13 17 15 17 12 15 9 11 14 13 11 2 6 3 6
8 11 12 13 12 12 14 15 16 16 17 18 18 19 19 28 9 7 1 2 9 5 7 8 5 5 7 6 8 4 14 14 8 15 13 12 5 9 18 19 16 17 3 4 3 7 4
13 13 13 13 15 14 14 15 16 17 18 19 19 17 19 11 11 5 6 8 5 6 6 5 6 5 6 10 11 9 10 11 13 10 9 11 10 14 19 19 15 15 0 3 3 11 7
13 14 14 15 15 15 15 16 17 18 19 19 19 16 14 4 6 8 8 10 5 9 2 5 4 7 12 10 6 11 13 8 5 8 14 9 1 12 15 14 7 8 8 10 9 10 11
13 13 14 15 15 15 15 17 18 19 20 21 21 18 9 5 3 6 9 6 8 7 3 5 2 8 12 10 9 14 16 16 11 13 13 15 10 6 7 11 10 12 15 12 12 12 10
12 13 13 13 14 15 16 17 18 20 22 23 25 21 8 6 5 8 6 7 7 3 0 3 1 5 11 10 9 13 14 15 15 12 8 13 16 14 13 16 13 17 18 11 10 11 8
13 13 13 13 14 15 16 18 19 21 22 23 26 3 4 3 3 5 7 9 3 1 2 4 4 9 10 10 6 11 12 15 15 14 11 12 14 9 7 12 12 15 16 16 18 3 9
13 13 14 14 14 15 16 17 19 21 23 24 7 5 1 5 6 7 8 8 2 2 4 4 4 3 8 12 12 11 12 11 16 17 14 4 11 8 12 7 7 11 16 11 10 12 10
13 14 14 14 14 15 15 16 19 21 24 21 6 5 6 5 5 7 9 5 3 4 4 4 2 3 2 4 12 12 10 7 15 19 17 10 10 10 8 14 15 10 10 12 10 7 9
14 14 13 13 13 14 14 15 16 19 26 8 5 5 5 4 7 3 8 4 2 5 5 5 6 7 5 3 9 11 11 8 10 14 19 18 8 11 16 10 8 15 19 16 11 13 10
13 13 12 12 13 14 15 13 14 15 15 7 6 3 4 5 6 8 4 6 5 5 5 3 5 6 1 4 5 10 6 3 11 16 16 15 11 9 12 11 8 14 14 13 15 14 11
13 13 13 12 12 13 14 12 12 13 12 6 6 4 5 6 3 8 5 6 5 4 8 6 8 7 7 8 7 2 3 3 7 15 4 13 16 14 11 13 13 20 14 15 16 12 12
13 14 14 11 12 12 13 12 12 13 12 5 2 4 5 4 7 6 5 1 6 5 5 5 5 8 7 6 5 4 2 8 6 7 6 16 16 14 3 4 5 8 14 14 16 15 12
14 14 15 13 11 12 11 11 11 12 17 3 5 5 3 4 4 8 7 9 9 5 4 6 6 4 7 9 8 10 7 3 4 7 16 17 9 11 11 6 8 8 7 10 16 16 9
14 13 14 14 13 11 10 10 9 10 11 3 2 1 4 4 6 6 6 8 6 2 5 6 5 10 9 7 11 13 14 13 14 8 13 15 9 9 12 9 6 10 12 11 11 11 14
15 14 13 14 13 12 10 9 8 5 8 3 2 5 4 5 6 7 2 4 7 5 9 7 11 8 7 15 20 19 16 13 11 12 15 12 16 9 4 8 11 4 3 4 10 8 11
14 14 13 14 14 13 12 9 7 4 4 4 3 5 4 6 5 6 10 9 8 10 12 12 12 7 11 15 10 8 7 6 9 7 12 16 12 6 6 10 2 7 7 6 6 9 10
15 13 13 14 14 13 12 10 8 6 4 7 3 3 5 5 4 6 8 9 9 9 9 13 7 8 7 6 8 8 9 9 7 8 8 12 14 9 7 7 8 5 8 3 3 7 10
16 14 14 14 15 14 13 12 10 8 8 7 3 6 5 5 7 5 6 5 2 6 8 5 5 4 6 6 9 10 12 1 7 10 10 11 11 13 10 9 5 7 9 6 8 7 10
16 15 14 14 13 15 14 12 12 10 11 8 3 6 6 5 11 9 10 10 7 6 8 8 7 6 6 7 4 5 7 5 4 2 9 10 9 7 8 10 9 10 8 6 6 6 5
17 15 16 15 16 16 16 13 14 10 12 11 5 5 6 7 8 10 13 16 16 12 7 5 7 6 5 5 2 4 6 3 6 7 5 6 3 5 8 8 5 10 5 4 4 7 6
Wind_Direction
21 15 22 17 9 6 1 358 344 339 338 337 334 332 331 328 325 325 321 319 318 313 311 309 310 313 287 229 274 35 304 142 193 242 256 276 293 323 56 87 112 106 109 94 139 123 136
14 6 0 2 360 1 356 354 345 335 335 334 332 330 328 326 324 324 321 322 316 310 301 298 302 303 258 244 51 54 21 169 213 234 245 270 3 13 71 79 32 112 117 118 136 126 116
345 356 358 355 350 350 350 350 342 338 336 334 332 329 327 325 325 324 322 321 318 313 293 283 283 280 252 290 36 114 335 196 207 251 271 282 327 305 300 124 110 154 137 141 148 153 135
5 5 355 345 344 341 341 341 348 341 337 334 332 330 327 326 324 324 323 320 317 318 286 242 235 252 273 65 325 255 199 194 212 216 279 315 283 113 317 127 154 150 175 148 139 191 149
4 360 358 358 0 360 359 352 345 339 336 333 332 329 326 326 324 324 325 319 304 18 119 179 233 269 193 150 225 206 212 218 175 188 194 207 244 273 187 234 179 198 93 56 133 188 162
6 3 0 357 356 352 348 345 342 339 337 333 331 330 328 327 324 323 321 286 298 218 209 240 266 242 198 150 93 217 187 239 192 170 168 193 208 220 232 235 57 83 109 118 30 91 231
7 4 0 357 354 351 347 345 343 340 337 336 333 330 329 328 324 323 319 218 227 178 219 291 333 318 122 334 211 202 186 195 199 206 202 198 212 219 217 227 22 301 318 22 86 36 264
359 359 353 348 344 343 343 342 339 337 336 334 332 331 329 327 322 317 278 23 48 358 299 262 262 265 266 306 217 190 195 202 204 204 210 179 223 219 233 228 228 237 266 115 128 71 266
356 359 346 342 339 336 336 339 337 334 333 331 329 329 330 325 319 297 348 63 6 302 258 161 210 262 199 203 230 172 197 204 208 214 204 226 214 226 233 213 234 238 257 54 349 334 241
348 350 353 350 344 344 343 340 337 333 330 327 327 329 333 326 295 348 153 66 323 243 265 121 163 123 167 215 216 167 213 188 206 217 213 241 157 233 225 231 225 248 115 188 244 277 328
356 355 350 349 353 352 346 339 336 333 329 325 325 328 331 324 319 282 35 322 324 228 250 89 104 97 159 220 114 167 181 206 207 203 199 197 209 220 227 226 225 256 232 217 239 264 261
354 351 350 350 349 344 340 336 333 330 328 323 317 321 332 219 240 277 310 307 228 229 161 127 123 171 179 196 175 134 176 224 296 210 225 256 263 239 236 235 228 246 232 218 240 269 266
352 350 349 348 345 341 338 335 333 329 325 319 315 314 293 296 337 332 300 239 236 255 133 120 86 171 203 172 164 176 186 194 196 201 199 204 196 189 238 215 215 209 226 232 224 225 245
346 345 345 342 340 337 336 334 333 329 323 319 320 311 159 243 272 301 262 230 251 55 14 119 237 203 206 176 168 191 187 203 214 246 231 203 203 198 188 223 208 217 229 231 216 242 240
343 342 340 338 335 334 334 334 333 329 325 323 311 261 235 155 229 235 234 223 326 138 9 331 181 204 187 202 248 195 209 219 204 221 241 210 229 173 198 208 235 189 229 248 273 224 284
336 337 337 336 334 334 333 334 334 330 330 328 310 288 141 342 192 219 233 258 260 287 313 266 270 259 200 180 203 202 192 219 224 207 243 194 236 183 175 197 215 263 212 207 233 258 241
333 333 333 332 334 332 333 335 336 335 332 324 256 256 63 125 233 217 232 228 253 222 269 288 267 263 238 195 222 196 184 211 210 196 215 234 246 153 168 207 192 193 208 236 284 241 279
329 327 324 326 331 332 333 336 338 341 335 315 289 227 126 270 219 223 228 226 20 255 210 272 285 275 260 207 215 223 220 245 194 185 197 217 234 187 206 194 269 234 217 217 225 216 240
323 323 330 327 328 330 334 334 339 346 358 327 316 312 149 263 233 208 178 228 260 245 232 239 260 244 258 276 250 224 234 349 180 183 201 194 231 215 173 180 189 231 231 258 245 248 271
322 326 324 323 325 328 333 331 336 340 343 314 274 224 155 219 301 291 210 204 212 191 264 264 281 270 266 246 214 260 225 110 211 224 329 189 224 235 210 215 202 206 215 227 248 236 243
317 320 323 319 322 325 328 332 333 335 331 287 239 68 359 176 199 249 253 6 216 221 206 246 235 250 306 273 246 190 181 317 172 200 224 224 232 221 234 321 268 229 200 211 229 238 259
309 309 311 318 316 318 322 326 330 338 323 273 318 327 328 282 239 237 196 231 250 222 242 183 255 343 302 284 322 306 327 320 4 179 210 216 220 193 233 227 243 226 225 222 222 249 259
294 299 299 309 310 313 314 319 330 344 320 303 289 234 265 133 217 233 210 242 243 265 206 267 313 313 293 348 333 305 298 287 274 287 205 219 208 200 216 195 214 229 210 215 225 230 235
290 291 291 296 304 306 303 299 318 339 333 323 16 288 260 242 234 233 262 254 258 270 296 296 301 292 351 321 297 260 249 247 237 234 241 221 225 211 182 177 224 80 86 256 257 244 237
285 282 288 287 292 299 299 290 286 279 292 277 292 290 303 266 276 253 246 261 271 258 252 272 289 338 317 295 273 236 191 195 201 219 210 231 222 194 201 221 228 218 195 224 236 275 206
284 274 282 280 280 284 293 295 258 255 224 269 264 280 277 299 214 276 272 258 276 270 266 252 260 313 283 270 261 246 210 211 170 169 214 213 215 226 205 252 235 298 124 146 189 200 176
279 275 275 274 273 275 280 286 276 233 198 249 253 241 262 259 257 247 236 292 296 268 268 285 344 273 240 263 256 237 244 329 181 191 180 175 203 216 197 236 209 112 145 141 243 78 136
278 272 270 268 268 267 271 270 266 235 189 218 243 209 252 274 291 267 262 249 237 239 268 40 259 197 244 246 261 215 271 154 234 118 186 184 191 205 233 225 233 159 157 246 60 102 133
272 270 265 261 258 259 263 259 266 253 189 202 258 204 220 248 285 318 280 275 266 271 305 282 329 306 6 276 222 308 250 213 249 192 179 229 268 187 243 202 134 174 31 81 66 113 132